SCP
0 0 0 0 0 0 0 0 0 0 0 0 0 0 0 0 0 0 0 0 0 0
0 0 0 0 0 0 0 0 0 0 0 0 0 0 0 0 0 0 0 0 0 0
0 0 0 0 0 0 0 0 0 0 0 0 0 0 0 0 0 0 0 0 0 0
0 0 0 0 0 0 0 0 0 0 0 0 0 0 0 0 0 0 0 0 0 0
0 0 0 0 0 0 0 0 0 0 0 0 0 0 0 0 0 0 0 0 0 0
0 0 0 0 0 0 0 0 0 0 0 0 0 0 0 0 0 0 0 0 0 0
0 0 0 0 0 0 0 0 0 0 0 0 0 0 0 0 0 0 0 0 0 0
0 0 0 0 0 0 0 0 0 0 0 0 0 0 0 0 0 0 0 0 0 0
0 0 0 0 0 0 0 0 0 0 0 0 0 0 0 0 0 0 0 0 0 0
0 0 0 0 0 0 0 0 0 0 0 0 0 0 0 -0 -0 0 0 0 0 0
0 0 0 0 0 0 0 0 0 0 0 0 0 0 0 -0 0 0 0 0 0 0
0 0 0 0 0 0 0 -0 0 0 0 0 0 0 -0 0 0 0 0 0 0 -0
0 0 -0 0 0 0 -0 0 0 0 -0 0 0 0 0 0 0 0 -0 -0 -0 -0
0 0 -0 -0 0 0 0 0 -0 -0 0 0 0 0 0 0 0 0 0 -0 0 0
Wind_Speed_500mb
29 32 28 31 28 34 36 39 40 42 41 48 43 46 50 55 57 61 53 46 38 33
3 5 15 25 32 37 40 44 46 50 44 43 43 51 46 46 57 58 53 49 41 29
6 9 17 24 31 40 46 47 51 52 37 36 38 50 59 62 53 51 44 43 43 34
12 17 20 25 35 48 50 47 54 44 30 37 38 50 52 62 61 52 47 48 38 33
16 21 24 27 35 42 49 48 46 29 30 33 41 49 53 63 49 50 50 37 31 24
24 25 31 33 36 40 40 36 29 24 24 35 36 49 55 55 52 44 40 35 27 24
33 28 29 31 32 32 28 27 24 23 23 24 28 41 52 52 49 46 34 28 28 27
40 43 24 27 25 22 23 23 24 22 21 29 41 45 48 44 44 42 42 41 36 29
40 36 28 21 16 20 19 18 20 26 29 38 44 49 46 42 43 46 45 36 32 25
33 29 23 15 17 12 15 15 21 24 27 36 39 36 47 53 46 41 38 31 26 28
23 21 18 14 11 8 12 12 28 39 40 40 41 42 38 38 33 29 31 30 28 23
16 20 14 13 14 17 21 37 43 44 45 46 42 37 33 25 14 25 33 34 26 24
19 19 12 22 26 29 41 51 52 49 40 39 40 33 20 11 27 33 36 35 31 27
16 16 19 26 29 45 56 57 53 52 54 54 42 27 19 22 28 33 33 34 36 33
Wind_Direction_500mb
253 264 265 254 267 284 292 297 301 300 290 274 265 266 251 239 230 227 232 233 242 257
76 270 268 270 273 279 283 290 295 297 288 268 262 258 231 231 233 230 232 237 238 221
37 337 316 304 292 286 285 287 293 292 273 267 256 256 252 248 237 233 230 233 209 209
308 300 295 286 290 293 286 290 290 291 267 263 264 256 247 238 224 227 221 193 178 176
299 305 309 298 298 294 287 292 292 292 268 262 259 259 237 221 217 209 181 171 175 170
305 293 302 309 303 297 301 303 295 292 279 261 269 232 212 193 182 169 170 172 170 160
323 299 301 309 311 312 303 303 302 298 270 252 225 202 184 172 171 170 166 155 138 132
322 316 313 317 317 313 304 298 281 272 243 217 188 181 178 172 163 153 141 136 134 123
318 312 310 321 321 321 300 283 254 231 218 190 181 167 158 149 141 133 133 131 122 117
315 307 304 301 323 303 269 243 210 190 182 158 143 149 142 138 135 139 132 122 111 113
306 294 292 291 299 246 208 190 157 147 143 140 132 127 131 130 129 127 112 115 117 108
273 262 276 241 206 184 180 155 142 131 122 116 102 96 94 105 101 112 117 123 119 108
258 233 231 194 176 164 146 131 124 112 105 99 94 91 89 114 127 121 122 126 106 94
238 216 207 178 162 146 135 124 116 110 100 88 76 88 114 114 106 110 123 105 95 88
Wind_Speed_850mb
29 32 28 31 28 34 36 39 40 42 41 48 43 46 50 55 57 61 53 46 38 33
3 5 15 25 32 37 40 44 46 50 44 43 43 51 46 46 57 58 53 49 41 29
6 9 17 24 31 40 46 47 51 52 37 36 38 50 59 62 53 51 44 43 43 34
12 17 20 25 35 48 50 47 54 44 30 37 38 50 52 62 61 52 47 48 38 33
16 21 24 27 35 42 49 48 46 29 30 33 41 49 53 63 49 50 50 37 31 24
24 25 31 33 36 40 40 36 29 24 24 35 36 49 55 55 52 44 40 35 27 24
33 28 29 31 32 32 28 27 24 23 23 24 28 41 52 52 49 46 34 28 28 27
40 43 24 27 25 22 23 23 24 22 21 29 41 45 48 44 44 42 42 41 36 29
40 36 28 21 16 20 19 18 20 26 29 38 44 49 46 42 43 46 45 36 32 25
33 29 23 15 17 12 15 15 21 24 27 36 39 36 47 53 46 41 38 31 26 28
23 21 18 14 11 8 12 12 28 39 40 40 41 42 38 38 33 29 31 30 28 23
16 20 14 13 14 17 21 37 43 44 45 46 42 37 33 25 14 25 33 34 26 24
19 19 12 22 26 29 41 51 52 49 40 39 40 33 20 11 27 33 36 35 31 27
16 16 19 26 29 45 56 57 53 52 54 54 42 27 19 22 28 33 33 34 36 33
Wind_Direction_850mb
253 264 265 254 267 284 292 297 301 300 290 274 265 266 251 239 230 227 232 233 242 257
76 270 268 270 273 279 283 290 295 297 288 268 262 258 231 231 233 230 232 237 238 221
37 337 316 304 292 286 285 287 293 292 273 267 256 256 252 248 237 233 230 233 209 209
308 300 295 286 290 293 286 290 290 291 267 263 264 256 247 238 224 227 221 193 178 176
299 305 309 298 298 294 287 292 292 292 268 262 259 259 237 221 217 209 181 171 175 170
305 293 302 309 303 297 301 303 295 292 279 261 269 232 212 193 182 169 170 172 170 160
323 299 301 309 311 312 303 303 302 298 270 252 225 202 184 172 171 170 166 155 138 132
322 316 313 317 317 313 304 298 281 272 243 217 188 181 178 172 163 153 141 136 134 123
318 312 310 321 321 321 300 283 254 231 218 190 181 167 158 149 141 133 133 131 122 117
315 307 304 301 323 303 269 243 210 190 182 158 143 149 142 138 135 139 132 122 111 113
306 294 292 291 299 246 208 190 157 147 143 140 132 127 131 130 129 127 112 115 117 108
273 262 276 241 206 184 180 155 142 131 122 116 102 96 94 105 101 112 117 123 119 108
258 233 231 194 176 164 146 131 124 112 105 99 94 91 89 114 127 121 122 126 106 94
238 216 207 178 162 146 135 124 116 110 100 88 76 88 114 114 106 110 123 105 95 88